Regional Weather Roundup
Issued by NWS

Home | Current Version | Previous Version | Text Only | Print | Product List | Glossary On
Versions: 1 2 3 4 5 6 7 8 9 10 11 12 13 14 15 16 17 18 19 20 21 22 23 24 25 26 27 28 29 30 31 32 33 34 35 36 37 38 39 40 41 42 43 44 45 46 47 48 49 50
000
ASUS45 KPSR 220310
RWRAZ

ARIZONA REGIONAL HOURLY WEATHER ROUNDUP
NATIONAL WEATHER SERVICE PHOENIX AZ
800 PM MST SUN SEP 21 2014

NOTE: FAIR INDICATES FEW OR NO CLOUDS BELOW 12,000 FEET WITH NO
SIGNIFICANT WEATHER AND/OR OBSTRUCTIONS TO VISIBILITY.

AZZ001>003-036-220400-
NORTHWEST ARIZONA

CITY           SKY/WX    TMP DP  RH WIND       PRES   REMARKS
BULLHEAD CITY  CLEAR     93  37  14 SE9       29.83R
KINGMAN        CLEAR     72  38  29 S10       30.04R
$$

AZZ004>008-015-016-018-220400-
NORTH CENTRAL ARIZONA

CITY           SKY/WX    TMP DP  RH WIND       PRES   REMARKS
GRAND CANYON   CLEAR     53  46  77 CALM      30.27R
PRESCOTT       CLEAR     69  45  41 SW7       30.17R
FLAGSTAFF      CLEAR     57  48  72 CALM      30.31R
PAYSON         CLEAR     72  55  56 W3        30.20R
PAGE           CLEAR     76  54  46 W3        30.09R
$$

AZZ009>014-017-220400-
NORTHEAST ARIZONA

CITY           SKY/WX    TMP DP  RH WIND       PRES   REMARKS
WINSLOW        CLEAR     73  53  49 SW7       30.15R
SAINT JOHNS    LGT RAIN  68  61  78 E8        30.22R
WINDOW ROCK    MOCLDY    61  57  87 SE3       30.32
SHOW LOW       PTCLDY    63  57  82 S8        30.29S
$$

AZZ023-220400-
GREATER PHOENIX AREA

CITY           SKY/WX    TMP DP  RH WIND       PRES   REMARKS
PHOENIX        PTCLDY    95  52  23 N6        29.86R
BUCKEYE          N/A     86  54  32 E8        29.87R
LUKE AFB       CLEAR     89  57  33 NE5       29.86R
DEER VALLEY    CLEAR     88  53  30 CALM      29.89R
SCOTTSDALE     CLEAR     91  53  27 CALM      29.91R
MESA-FALCON    PTCLDY    90  54  29 W6        29.89R
MESA-GATEWAY   PTCLDY    93  55  27 CALM      29.91R
CHANDLER       PTCLDY    90  57  33 VRB3      29.88R
$$

AZZ027-028-220400-
SOUTHWEST MARICOPA COUNTY AND PINAL COUNTY

CITY           SKY/WX    TMP DP  RH WIND       PRES   REMARKS
CASA GRANDE    CLEAR     88  54  31 CALM      29.91R
$$

AZZ503-504-507>509-220400-
SOUTHEAST ARIZONA

CITY           SKY/WX    TMP DP  RH WIND       PRES   REMARKS
TUCSON         MOCLDY    85  63  47 NE13      30.02R
DAVIS-MONTHAN  PTCLDY    82  64  53 NE14      30.00R
RYAN FIELD       N/A     88  57  35 CALM      29.99R
NOGALES        MOCLDY    72  68  87 N3        30.10R
SIERRA VISTA   MOCLDY    70  66  87 SE9       30.18R
DOUGLAS        CLOUDY    70  64  81 W8        30.18R
SAFFORD        CLOUDY    77  66  68 E7        30.03R
$$

AZZ020-021-025-026-031-220400-
SOUTHWEST ARIZONA

CITY           SKY/WX    TMP DP  RH WIND       PRES   REMARKS
YUMA           CLEAR     95  43  16 SE7       29.79R
$$

CAZ031-033-041-043-047-048-061-220400-
SOUTHERN CALIFORNIA

CITY           SKY/WX    TMP DP  RH WIND       PRES   REMARKS
DOWNTOWN L.A.  CLEAR     69  60  73 W5        29.93R
L.A. AIRPORT   PTCLDY    68  62  81 W13       29.94S
SAN DIEGO      PTCLDY    72  62  71 NW9       29.95R
BURBANK        CLEAR     71  57  61 S5        29.93S
ONTARIO        CLEAR     73  58  59 W10       29.94R
RIVERSIDE      CLEAR     73  58  59 W9        29.94R
PALM SPRINGS   CLEAR     92  49  22 NW15      29.83R
EL CENTRO NAS  CLEAR     87  44  22 NE6       29.77R
IMPERIAL       CLEAR     92  45  19 N3        29.76S
BLYTHE         CLEAR     94  42  16 SW3       29.79R
NEEDLES        CLEAR     92  43  18 SW7       29.84R
$$

NVZ020-UTZ003-220400-
SOUTHERN NEVADA-UTAH

CITY           SKY/WX    TMP DP  RH WIND       PRES   REMARKS
LAS VEGAS      PTCLDY    89  45  21 S10       29.87R
SALT LAKE CITY MOCLDY    63  56  78 E7        30.14R
$$

NMZ009-TXZ055-220400-
NEW MEXICO-WEST TEXAS

CITY           SKY/WX    TMP DP  RH WIND       PRES   REMARKS
ALBUQUERQUE    MOCLDY    71  54  54 E14       30.27R
EL PASO        CLOUDY    76  61  59 NE12      30.14R
$$


........................KEY........................
SKY/WX - SKY CONDITION/WEATHER
TMP    - TEMPERATURE IN FAHRENHEIT
DP     - DEW POINT IN FAHRENHEIT
RH     - RELATIVE HUMIDITY IN PERCENT
WIND   - DIRECTION AND SPEED IN MILES PER HOUR (MPH)
VRB    - VARIABLE WIND DIRECTION
PRES   - MEAN SEA LEVEL PRESSURE IN INCHES OF MERCURY
         F - FALLING PRESSURE   R - RISING PRESSURE
         S - STEADY PRESSURE
VSB    - VISIBILITY IN MILES
HX     - HEAT INDEX IN FAHRENHEIT
WCI    - WIND CHILL INDEX IN FAHRENHEIT
TC     - TEMPERATURE IN CELSIUS WHICH IS ALSO KNOWN AS
         TEMPERATURE IN CENTIGRADE
AFB    - AIR FORCE BASE
         LUKE AFB IS LUKE AIR FORCE BASE
         DAVIS-MONTHAN IS DAVIS-MONTHAN AIR FORCE BASE
NAS    - NAVAL AIR STATION
         EL CENTRO NAS IS EL CENTRO NAVAL AIR STATION
N/A    - NOT AVAILABLE



USA.gov is the U.S. government's official web portal to all federal, state and local government web resources and services.